Regional Weather Roundup
Issued by NWS Grand Forks, ND

Home | Current Version | Previous Version | Text Only | Print | Product List | Glossary Off
Versions: 1 2 3 4 5 6 7 8 9 10 11 12 13 14 15 16 17 18 19 20 21 22 23 24 25 26 27 28 29 30 31 32 33 34 35 36 37 38 39 40 41 42 43 44 45 46 47 48 49 50

000
ASUS43 KFGF 172131
RWRFGF
PRAIRIE TO PINES  WEATHER ROUNDUP
NATIONAL WEATHER SERVICE EASTERN NORTH DAKOTA/GRAND FORKS ND
400 PM CDT FRI APR 17 2015

 **SATELLITE DATA USED TO AUGMENT SKY COVER AT AUTOMATED STATIONS**
 *****  WEATHER ACROSS EASTERN NORTH DAKOTA  *****

CITY           SKY/WX    TMP DP  RH WIND       PRES   REMARKS
GRAND FORKS    SUNNY     76  26  15 NW20G29   29.99F
GRAND FRKS AFB SUNNY     77  27  15 N18G25    30.00F
GRAND FRKS NWS   N/A     73 N/A N/A NW20        N/A
DEVILS LAKE    SUNNY     72  28  20 N17G26    30.04F
FARGO          SUNNY     76  17  11 W16G24    30.03F
WAHPETON ARPT  CLEAR     72  14  11 NW13      30.04F
$$

 ***** WEATHER ACROSS CENTRAL AND WESTERN NORTH DAKOTA  *****

CITY           SKY/WX    TMP DP  RH WIND       PRES   REMARKS
BISMARCK       MOSUNNY   72  24  16 N9        30.09F
MINOT          SUNNY     70  27  20 N13G23    30.09F
JAMESTOWN      SUNNY     73  17  12 NW9       30.05F
MINOT AFB      SUNNY     68  29  23 N13G18    30.09F
GARRISON         N/A     72  27  18 N12G22    30.08F
WILLISTON      SUNNY     71  24  17 N7        30.10F
DICKINSON      MOSUNNY   69  19  15 N8        30.10F
HETTINGER      MOSUNNY   68  24  19 N5        30.12F
$$

 *****  OTHER AIRPORT OBSERVATIONS IN OUR AREA  *****

CITY           SKY/WX    TMP DP  RH WIND       PRES   REMARKS
WALHALLA       FAIR      64  30  27 N14       30.08R
GRAFTON AIRPOR FAIR      73  28  19 NW22      30.02S
VALLEY CITY AR FAIR      72  21  15 NW15      30.06F
CANDO          FAIR      68  23  18 N17G26    30.08S
CAVALIER APRT  FAIR      66  32  28 N23G29    30.05R
GWINNER        CLEAR     73  25  16 N9G18     30.07F
SHEYENNE NWR     N/A     74  16  11 NW7       29.95S
ROLLA          FAIR      63  18  17 NW17G25   30.11S
 ***** THE ABOVE OBSERVATIONS ARE NON NWS ARE NOT QUALITY
       CONTROLLED AND MAY MIS-REPORT RAIN FOR SNOW...
$$

  *****  WEATHER ACROSS NORTHERN MINNESOTA  *****

CITY           SKY/WX    TMP DP  RH WIND       PRES   REMARKS
FLAG ISLAND    SUNNY     57  25  28 NW24G32   29.97R
WARROAD        SUNNY     68  32  26 NW18G31   29.99R
ROSEAU         SUNNY     68  19  15 W18G28    30.00R
HALLOCK        SUNNY     68  14  12 N21G35    30.03R
THF RVR FALLS  SUNNY     73  25  16 W21G28    29.98F
BAUDETTE       SUNNY     69  29  22 NW29G38   29.94F
WASKISH        SUNNY     63  30  29 SW13      29.97F
CROOKSTON      SUNNY     75  25  15 NW24G31   29.99F
STEPHEN NDAWN    N/A     72  28  20 N21         N/A
GREENBUSH NDAW   N/A     68  25  19 NW24        N/A
$$
  *****  WEATHER ACROSS CENTRAL AND WEST MINNESOTA  *****

CITY           SKY/WX    TMP DP  RH WIND       PRES   REMARKS
FOSSTON        SUNNY     73  19  13 W13G31    30.01F
BEMIDJI        SUNNY     71  23  16 W17G24    30.00F
PARK RAPIDS    SUNNY     73  18  12 W17       30.03S
ELBOW LAKE     FAIR      71  21  15 NW7G17    30.05F
WADENA         SUNNY     70  27  19 NW9G22    30.04
DETROIT LAKES  SUNNY     72  19  14 W13G24    30.05F
MOORHEAD       SUNNY     73  16  11 W13G20    30.03F
FERGUS FALLS   SUNNY     72   9   8 NW13G20   30.04F
MORRIS MN      SUNNY     73  21  14 N9        30.05F
STAPLES        SUNNY     72  19  14 W18       30.04S
$$
  *****  WEATHER ELSEWHERE ACROSS MINNESOTA  *****

CITY           SKY/WX    TMP DP  RH WIND       PRES   REMARKS
DULUTH         SUNNY     71  24  17 NW10G24   29.98F
INTRNTL FALLS  SUNNY     69  25  19 W15G38    29.92F
ELY            SUNNY     68  18  14 W15G25    29.95S
CLOQUET        SUNNY     72  12  10 W12G17    29.98F
WHEATON        SUNNY     70  25  18 W9        30.07F
BRAINERD       SUNNY     71  23  16 NW10G21   30.03F
HIBBING        SUNNY     71  19  14 W13G24    29.98F
ALEXANDRIA     SUNNY     70  19  14 NW12G17   30.07F
SAINT CLOUD    SUNNY     71  24  17 NW6G17    30.03F
MINNEAPOLIS    MOSUNNY   74  37  26 VRB3      30.02F
$$

  *****  WEATHER ACROSS SOUTH DAKOTA  *****

CITY           SKY/WX    TMP DP  RH WIND       PRES   REMARKS
SIOUX FALLS    PTSUNNY   75  41  29 CALM      30.04F
BROOKINGS      SUNNY     72  28  20 SW5       30.06F
WATERTOWN      MOSUNNY   70  19  14 NW8       30.08F
HURON          MOSUNNY   75  29  18 N12       30.07F
SISSETON         N/A     73  14  10 N8        30.06F
ABERDEEN       MOSUNNY   75  23  14 NW12      30.08F
MITCHELL       PTSUNNY   74  39  28 NE12      30.06F
PIERRE         CLOUDY    70  31  23 NE5       30.08F
MOBRIDGE       MOSUNNY   72  22  15 VRB3      30.09F
RAPID CITY     CLOUDY    58  30  34 E8        30.14F
$$

  *****  SOME WEATHER IN NEARBY STATES *****

CITY           SKY/WX    TMP DP  RH WIND       PRES   REMARKS
GLASGOW MT     SUNNY     68  24  19 SE5       30.09F
GREAT FALLS MT SUNNY     66  27  23 W8        30.06F
CHEYENNE WY    LGT SNOW  36  31  82 N9G25     30.05R
SCOTTSBLUFF NE LGT RAIN  47  47 100 NE24G31   30.03F FOG
OMAHA NE       CLOUDY    75  51  43 E7        30.00F
DES MOINES IA  PTSUNNY   79  49  34 VRB5      30.01F
DAVENPORT IA   PTSUNNY   78  46  32 SW7       30.01F
CHICAGO IL     MOSUNNY   77  45  32 CALM      29.99F
EAU CLAIRE WI  MOSUNNY   76  42  29 W12       29.99F
LA CROSSE WI   SUNNY     80  43  26 NW8       29.98F
$$

  *****  SOME NATIONAL WEATHER *****

CITY           SKY/WX    TMP DP  RH WIND       PRES   REMARKS
LA GUARDIA NY  PTSUNNY   71  53  52 W9        29.90F
RALEIGH NC     PTSUNNY   78  61  55 CALM      30.00F
ATLANTA GA     RAIN      62  59  90 E3        30.03F FOG
NEW ORLEANS LA MOSUNNY   82  69  64 W8        29.91F
OKLAHOMA CITY  CLOUDY    74  54  49 E7        29.96F
ALBUQUERQUE NM PTSUNNY   54  14  20 SW16      30.03F
SALT LAKE CITY PTSUNNY   59  35  40 N5        30.05F
LOS ANGELES CA MOSUNNY   71  41  33 W13       30.02F
BOISE ID       SUNNY     68  29  23 W10       30.11F
SEATTLE WA     MOSUNNY   64  39  39 NE7       30.26F
$$

*** WEATHER ACROSS MANITOBA...SASKATCHEWAN AND ONTARIO ***
                ***ONTARIO***

CITY           SKY/WX    TMP DP  RH WIND       PRES   REMARKS
GERALDTON      MOSUNNY   61  30  31 S14G26    29.83F
THUNDER BAY    MOSUNNY   68  27  21 SW17G28   29.88F
SIOUX LOOKOUT  PTSUNNY   61  27  27 NW21G31   29.84R
TORONTO        MOSUNNY   72  39  30 NW16G31   29.94F
BIG TROUT LK   CLOUDY    39  32  75 NW9       29.96R
PICKLE LAKE    LGT RAIN  37  34  87 N6G18     29.89R
DRYDEN         SUNNY     64  23  20 NW26G41   29.87R
KENORA         MOSUNNY   63  21  20 NW17G30   29.96R
$$
                *** MANITOBA***

CITY           SKY/WX    TMP DP  RH WIND       PRES   REMARKS
BRANDON        MOSUNNY   63  27  25 N9G17     30.11S
DAUPHIN        SUNNY     55  37  50 NE16      30.15R
ISLAND LAKE    MOSUNNY   50  28  43 NW8       30.03R
PILOT MOUND      N/A     64  27  24 N13G21      N/A
THE PAS        MOSUNNY   54  34  47 NW3       30.12S
THOMPSON       PTSUNNY   55  25  30 N14G23    30.04R
WINNIPEG       MOSUNNY   63  28  27 N20G28    30.07S
LYNN LAKE      MOSUNNY   50  21  32 N10G18    30.07R
CHURCHILL      PTSUNNY   27  23  86 N20G28    30.08R WCI  13
GILLAM         CLOUDY    39  36  87 N6        30.05R
$$
                ***SASKATCHEWAN***

CITY           SKY/WX    TMP DP  RH WIND       PRES   REMARKS
ESTEVAN        MOSUNNY   63  21  20 NE8       30.14F
KINDERSLEY     MOSUNNY   64  23  20 S14G25    30.05F
LLOYDMINSTER   PTSUNNY   59  23  25 S17G24    30.00F
PRINCE ALBERT  PTSUNNY   59  23  25 VRB7      30.12F
REGINA         MOSUNNY   61  25  25 NW6       30.15F
YORKTON          N/A     57  23  26 N10       30.14
N. BATTLEFORD  SUNNY     61  23  23 S10G18    30.09F
LA RONGE       PTSUNNY   54  28  37 SE10      30.11S
SASKATOON      MOSUNNY   61  16  17 VRB8      30.14F
SWIFT CURRENT  SUNNY     64  25  22 SE10G25   30.08F
$$
NOTE: THESE ARE AUTOMATED STATIONS WITH LIMITED QUALITY CONTROL
      "FAIR" INDICATES FEW OR NO CLOUDS BELOW 12,000 FEET WITH NO
      SIGNIFICANT WEATHER AND/OR OBSTRUCTIONS TO VISIBILITY.
      SKY/WX - SKY CONDITION AND SIGNIFICANT WEATHER.
      TMP - AIR TEMPERATURE.    DP   - DEWPOINT TEMPERATURE.
      RH  - RELATIVE HUMIDITY.  PRES - PRESSURE.
      HX  - HEAT INDEX.         WCI  - WIND CHILL INDEX.
$


USA.gov is the U.S. government's official web portal to all federal, state and local government web resources and services.